| time (UTC) | temp C | wind direction | speed KPH | gust KPH | rain 1hr cm | rain 24hr cm | rain mn cm | humidity % | barometer mb |
| 20260506044604 | 24 | 115 | 3.2 | 12.9 | 0.00 | 0.00 | 0.00 | 89 | 1010.4 |
| 20260506043049 | 24 | 119 | 3.2 | 11.3 | 0.00 | 0.00 | 0.00 | 89 | 1010.1 |
| 20260506041550 | 24 | 117 | 3.2 | 11.3 | 0.00 | 0.00 | 0.00 | 89 | 1010.2 |
| 20260506040053 | 25 | 98 | 3.2 | 11.3 | 0.00 | 0.00 | 0.00 | 89 | 1010.2 |
| 20260506034547 | 25 | 122 | 4.8 | 12.9 | 0.00 | 0.00 | 0.00 | 88 | 1010.1 |
| 20260506033047 | 25 | 117 | 4.8 | 12.9 | 0.00 | 0.00 | 0.00 | 87 | 1009.7 |
| 20260506031557 | 25 | 113 | 6.4 | 17.7 | 0.00 | 0.00 | 0.00 | 86 | 1009.6 |
| 20260506030053 | 25 | 107 | 6.4 | 14.5 | 0.00 | 0.00 | 0.00 | 86 | 1009.6 |
| 20260506024557 | 25 | 101 | 6.4 | 12.9 | 0.00 | 0.00 | 0.00 | 86 | 1009.4 |
| 20260506023050 | 25 | 109 | 6.4 | 17.7 | 0.00 | 0.00 | 0.00 | 86 | 1009.2 |
| 20260506021549 | 25 | 117 | 8.0 | 17.7 | 0.00 | 0.00 | 0.00 | 86 | 1008.8 |
| 20260506020048 | 25 | 103 | 4.8 | 16.1 | 0.00 | 0.00 | 0.00 | 85 | 1008.9 |
| 20260506014552 | 25 | 117 | 6.4 | 16.1 | 0.00 | 0.00 | 0.00 | 84 | 1008.7 |
| 20260506013052 | 25 | 96 | 6.4 | 19.3 | 0.00 | 0.00 | 0.00 | 83 | 1008.5 |
| 20260506011549 | 26 | 110 | 6.4 | 16.1 | 0.00 | 0.00 | 0.00 | 82 | 1008.1 |
| 20260506010048 | 26 | 105 | 6.4 | 14.5 | 0.00 | 0.00 | 0.00 | 81 | 1008.5 |
| 20260506004551 | 26 | 107 | 8.0 | 19.3 | 0.00 | 0.00 | 0.00 | 81 | 1008.2 |
| 20260506003049 | 26 | 112 | 8.0 | 19.3 | 0.00 | 0.00 | 0.00 | 80 | 1007.9 |
| 20260506001552 | 26 | 98 | 9.7 | 22.5 | 0.00 | 0.00 | 0.00 | 78 | 1008.0 |
| 20260506000047 | 26 | 98 | 6.4 | 19.3 | 0.00 | 0.00 | 0.00 | 78 | 1008.0 |
| 20260505234551 | 26 | 115 | 12.9 | 22.5 | 0.00 | 0.00 | 0.00 | 77 | 1007.9 |
| 20260505233050 | 27 | 110 | 9.7 | 24.1 | 0.00 | 0.00 | 0.00 | 78 | 1007.8 |
| 20260505231601 | 27 | 112 | 8.0 | 22.5 | 0.00 | 0.00 | 0.00 | 78 | 1007.7 |
| 20260505230056 | 27 | 75 | 11.3 | 27.4 | 0.00 | 0.00 | 0.00 | 77 | 1007.7 |
| 20260505224548 | 27 | 115 | 9.7 | 29.0 | 0.00 | 0.00 | 0.00 | 78 | 1007.8 |
| 20260505223050 | 27 | 124 | 8.0 | 22.5 | 0.00 | 0.00 | 0.00 | 77 | 1008.0 |
| 20260505221549 | 27 | 90 | 8.0 | 27.4 | 0.00 | 0.00 | 0.00 | 77 | 1007.9 |
| 20260505220046 | 27 | 118 | 8.0 | 22.5 | 0.00 | 0.00 | 0.00 | 77 | 1008.1 |
| 20260505214550 | 27 | 122 | 8.0 | 25.7 | 0.00 | 0.00 | 0.00 | 77 | 1008.1 |
| 20260505213056 | 27 | 119 | 11.3 | 30.6 | 0.00 | 0.00 | 0.00 | 75 | 1008.3 |
| 20260505211552 | 27 | 102 | 9.7 | 22.5 | 0.00 | 0.00 | 0.00 | 76 | 1008.5 |
| 20260505210048 | 27 | 122 | 6.4 | 19.3 | 0.00 | 0.00 | 0.00 | 77 | 1008.7 |
| 20260505204554 | 27 | 77 | 6.4 | 20.9 | 0.00 | 0.00 | 0.00 | 78 | 1009.1 |
| 20260505203047 | 28 | 103 | 8.0 | 20.9 | 0.00 | 0.00 | 0.00 | 77 | 1009.2 |
| 20260505201551 | 28 | 125 | 6.4 | 22.5 | 0.00 | 0.00 | 0.00 | 76 | 1009.4 |
| 20260505200052 | 27 | 125 | 9.7 | 17.7 | 0.00 | 0.00 | 0.00 | 76 | 1009.4 |
| 20260505194551 | 27 | 127 | 6.4 | 19.3 | 0.00 | 0.00 | 0.00 | 76 | 1009.7 |
| 20260505193050 | 27 | 107 | 8.0 | 20.9 | 0.00 | 0.00 | 0.00 | 78 | 1009.7 |
| 20260505191608 | 27 | 116 | 4.8 | 19.3 | 0.00 | 0.00 | 0.00 | 79 | 1009.9 |
| 20260505190052 | 27 | 89 | 4.8 | 24.1 | 0.00 | 0.00 | 0.00 | 77 | 1009.7 |
| 20260505184552 | 27 | 89 | 3.2 | 9.7 | 0.00 | 0.00 | 0.00 | 78 | 1010.0 |
| 20260505183049 | 27 | 121 | 4.8 | 19.3 | 0.00 | 0.00 | 0.00 | 78 | 1010.1 |
| 20260505181548 | 27 | 133 | 4.8 | 16.1 | 0.00 | 0.00 | 0.00 | 77 | 1010.2 |
| 20260505174554 | 26 | 68 | 9.7 | 19.3 | 0.00 | 0.00 | 0.00 | 80 | 1010.6 |
| 20260505173052 | 26 | 129 | 4.8 | 14.5 | 0.00 | 0.00 | 0.00 | 82 | 1010.8 |
| 20260505171549 | 26 | 109 | 4.8 | 17.7 | 0.00 | 0.00 | 0.00 | 82 | 1010.7 |
| 20260505170049 | 26 | 103 | 9.7 | 17.7 | 0.00 | 0.00 | 0.00 | 81 | 1010.7 |
| 20260505164549 | 26 | 134 | 4.8 | 19.3 | 0.00 | 0.00 | 0.00 | 80 | 1010.8 |
| 20260505163046 | 26 | 122 | 4.8 | 16.1 | 0.00 | 0.00 | 0.00 | 82 | 1010.7 |
| 20260505161556 | 25 | 132 | 8.0 | 27.4 | 0.00 | 0.00 | 0.00 | 83 | 1010.7 |
| 20260505153050 | 25 | 91 | 6.4 | 19.3 | 0.00 | 0.00 | 0.00 | 85 | 1010.4 |
| 20260505151553 | 25 | 127 | 9.7 | 22.5 | 0.00 | 0.00 | 0.00 | 86 | 1010.4 |
| 20260505124546 | 22 | 123 | 1.6 | 8.0 | 0.00 | 0.00 | 0.00 | 92 | 1010.1 |
| 20260505123047 | 21 | 119 | 3.2 | 8.0 | 0.00 | 0.00 | 0.00 | 93 | 1010.0 |
| 20260505121553 | 21 | 118 | 3.2 | 9.7 | 0.00 | 0.00 | 0.00 | 93 | 1009.8 |
| 20260505120053 | 21 | 121 | 3.2 | 9.7 | 0.00 | 0.00 | 0.00 | 93 | 1009.5 |
| 20260505114556 | 21 | 120 | 3.2 | 6.4 | 0.00 | 0.00 | 0.00 | 92 | 1009.6 |
| 20260505113052 | 21 | 122 | 1.6 | 8.0 | 0.00 | 0.00 | 0.00 | 92 | 1009.7 |
| 20260505111552 | 21 | 120 | 3.2 | 9.7 | 0.00 | 0.00 | 0.00 | 92 | 1009.5 |
| 20260505101605 | 21 | 124 | 1.6 | 6.4 | 0.00 | 0.00 | 0.00 | 92 | 1009.7 |
| 20260505094548 | 21 | 103 | 3.2 | 9.7 | 0.00 | 0.00 | 0.00 | 91 | 1009.8 |
| 20260505093055 | 21 | 103 | 4.8 | 9.7 | 0.00 | 0.00 | 0.00 | 91 | 1009.8 |
| 20260505091545 | 21 | 118 | 3.2 | 11.3 | 0.00 | 0.00 | 0.00 | 90 | 1009.9 |
| 20260505090045 | 21 | 120 | 3.2 | 11.3 | 0.00 | 0.00 | 0.00 | 90 | 1010.0 |
| 20260505084546 | 21 | 109 | 3.2 | 11.3 | 0.00 | 0.00 | 0.00 | 90 | 1010.1 |
| 20260505083048 | 21 | 125 | 1.6 | 6.4 | 0.00 | 0.00 | 0.00 | 90 | 1010.2 |
| 20260505081558 | 21 | 115 | 3.2 | 8.0 | 0.00 | 0.00 | 0.00 | 89 | 1010.1 |
| 20260505080057 | 21 | 124 | 3.2 | 9.7 | 0.00 | 0.00 | 0.00 | 89 | 1010.3 |
| 20260505074551 | 21 | 103 | 4.8 | 11.3 | 0.00 | 0.00 | 0.00 | 89 | 1010.4 |
| 20260505073049 | 21 | 121 | 4.8 | 11.3 | 0.00 | 0.00 | 0.00 | 88 | 1010.5 |
| 20260505071554 | 21 | 121 | 3.2 | 9.7 | 0.00 | 0.00 | 0.00 | 88 | 1010.6 |
| 20260505070052 | 21 | 99 | 4.8 | 11.3 | 0.00 | 0.00 | 0.00 | 88 | 1010.8 |
| 20260505064549 | 21 | 96 | 4.8 | 11.3 | 0.00 | 0.00 | 0.00 | 87 | 1010.9 |
| 20260505063051 | 21 | 123 | 3.2 | 8.0 | 0.00 | 0.00 | 0.00 | 87 | 1011.1 |
| 20260505061546 | 21 | 111 | 4.8 | 12.9 | 0.00 | 0.00 | 0.00 | 86 | 1011.2 |
| 20260505060052 | 21 | 123 | 6.4 | 14.5 | 0.00 | 0.00 | 0.00 | 86 | 1011.4 |